Weather History for KDXX - June, 2014

Change the Weather History Date:

Wednesday, June 25, 2014

  Actual Average (KAQP) Record (KAQP)
Temperature  
Mean Temperature 70 °F -  
Max Temperature 78 °F 77 °F 96 °F (2001)
Min Temperature 62 °F 56 °F 41 °F (2004)
Cooling Degree Days 5    
Growing Degree Days 20 (Base 50)    
Moisture  
Dew Point 59 °F    
Average Humidity 70    
Maximum Humidity 94    
Minimum Humidity 44    
Precipitation  
Precipitation 0.00 in - - ()
Sea Level Pressure  
Sea Level Pressure 30.03 in    
Wind  
Wind Speed 4 mph (NNW)    
Max Wind Speed 13 mph    
Max Gust Speed -    
Visibility 10 miles    
Events      
Averages and records for this station are not official NWS values.
T = Trace of Precipitation, MM = Missing Value Source: NWS Daily Summary

Daily Weather History Graph

Daily Weather History Graph

Search for Another Location

Airport or City:

Trip Planner

Search our weather history database for the weather conditions in past years. The results will help you decide how hot, cold, wet, or windy it might be!

Date:

Astronomy

Jun. 25, 2014 Rise Set
Actual Time 5:39 AM CDT 9:15 PM CDT
Civil Twilight 5:01 AM CDT 9:52 PM CDT
Nautical Twilight 4:12 AM CDT 10:42 PM CDT
Astronomical Twilight 3:06 AM CDT 11:48 PM CDT
Moon 4:35 AM CDT (6/25) 7:44 PM CDT (6/25)
Length of Visible Light 16h 51m
Length of Day
15h 36m
Waning Crescent, 3% of the Moon is Illuminated
Jun 25
Waning Crescent
Jun 27
New
Jul 5
First Quarter
Jul 12
Full
Jul 18
Last Quarter

Hourly Weather History & Observations

Time (CDT) Temp. Dew Point Humidity Pressure Visibility Wind Dir Wind Speed Gust Speed Precip Events Conditions
12:13 AM 66.2 °F 60.8 °F 83% 30.01 in 10.0 mi WNW 3.5 mph - N/A   Clear
12:33 AM 66.2 °F 60.8 °F 83% 30.01 in 10.0 mi NW 4.6 mph - N/A   Clear
12:54 AM 64.4 °F 62.6 °F 94% 30.01 in 10.0 mi NW 3.5 mph - N/A   Clear
1:13 AM 64.4 °F 62.6 °F 94% 30.02 in 10.0 mi NW 4.6 mph - N/A   Clear
1:33 AM 64.4 °F 62.6 °F 94% 30.02 in 10.0 mi NNW 3.5 mph - N/A   Clear
1:54 AM 64.4 °F 62.6 °F 94% 30.02 in 10.0 mi North 4.6 mph - N/A   Clear
2:13 AM 64.4 °F 62.6 °F 94% 30.03 in 10.0 mi NNW 5.8 mph - N/A   Clear
2:33 AM 64.4 °F 60.8 °F 88% 30.03 in 10.0 mi NNW 4.6 mph - N/A   Scattered Clouds
2:54 AM 62.6 °F 60.8 °F 94% 30.03 in 10.0 mi NNW 4.6 mph - N/A   Scattered Clouds
3:13 AM 62.6 °F 60.8 °F 94% 30.03 in 10.0 mi NNW 6.9 mph - N/A   Clear
3:33 AM 64.4 °F 62.6 °F 94% 30.04 in 10.0 mi NNW 5.8 mph - N/A   Scattered Clouds
3:54 AM 62.6 °F 60.8 °F 94% 30.03 in 10.0 mi NNW 5.8 mph - N/A   Clear
4:13 AM 62.6 °F 60.8 °F 94% 30.04 in 10.0 mi NW 6.9 mph - N/A   Clear
4:33 AM 62.6 °F 60.8 °F 94% 30.03 in 10.0 mi NW 6.9 mph - N/A   Clear
4:54 AM 64.4 °F 60.8 °F 88% 30.04 in 10.0 mi NW 3.5 mph - N/A   Mostly Cloudy
5:13 AM 62.6 °F 60.8 °F 94% 30.04 in 10.0 mi WNW 4.6 mph - N/A   Scattered Clouds
5:34 AM 62.6 °F 60.8 °F 94% 30.04 in 10.0 mi WNW 4.6 mph - N/A   Clear
5:53 AM 62.6 °F 60.8 °F 94% 30.04 in 10.0 mi WNW 4.6 mph - N/A   Clear
6:13 AM 62.6 °F 60.8 °F 94% 30.05 in 10.0 mi West 4.6 mph - N/A   Clear
6:34 AM 62.6 °F 60.8 °F 94% 30.05 in 10.0 mi NW 4.6 mph - N/A   Clear
6:53 AM 64.4 °F 60.8 °F 88% 30.05 in 10.0 mi NW 4.6 mph - N/A   Clear
7:13 AM 64.4 °F 60.8 °F 88% 30.05 in 10.0 mi WNW 5.8 mph - N/A   Clear
7:34 AM 64.4 °F 60.8 °F 88% 30.05 in 10.0 mi NNW 5.8 mph - N/A   Clear
7:53 AM 66.2 °F 60.8 °F 83% 30.05 in 10.0 mi NNW 4.6 mph - N/A   Clear
8:13 AM 66.2 °F 60.8 °F 83% 30.05 in 10.0 mi North 6.9 mph - N/A   Clear
8:34 AM 66.2 °F 60.8 °F 83% 30.06 in 10.0 mi Calm Calm - N/A   Clear
8:53 AM 66.2 °F 60.8 °F 83% 30.06 in 10.0 mi NNW 3.5 mph - N/A   Scattered Clouds
9:13 AM 66.2 °F 59.0 °F 78% 30.05 in 10.0 mi North 6.9 mph - N/A   Scattered Clouds
9:34 AM 68.0 °F 57.2 °F 68% 30.06 in 10.0 mi NNW 4.6 mph - N/A   Clear
9:53 AM 69.8 °F 57.2 °F 64% 30.06 in 10.0 mi Calm Calm - N/A   Clear
10:13 AM 69.8 °F 57.2 °F 64% 30.06 in 10.0 mi North 3.5 mph - N/A   Clear
10:34 AM 69.8 °F 57.2 °F 64% 30.06 in 10.0 mi Calm Calm - N/A   Clear
10:53 AM 71.6 °F 57.2 °F 60% 30.06 in 10.0 mi Calm Calm - N/A   Clear
11:13 AM 69.8 °F 57.2 °F 64% 30.06 in 10.0 mi Calm Calm - N/A   Clear
11:53 AM 71.6 °F 57.2 °F 60% 30.05 in 10.0 mi Calm Calm - N/A   Clear
12:13 PM 71.6 °F 57.2 °F 60% 30.05 in 10.0 mi Calm Calm - N/A   Clear
12:33 PM 71.6 °F 57.2 °F 60% 30.05 in 10.0 mi Calm Calm - N/A   Clear
12:54 PM 73.4 °F 57.2 °F 57% 30.05 in 10.0 mi NNE 3.5 mph - N/A   Clear
1:13 PM 73.4 °F 57.2 °F 57% 30.05 in 10.0 mi Calm Calm - N/A   Clear
1:33 PM 73.4 °F 57.2 °F 57% 30.05 in 10.0 mi SW 4.6 mph - N/A   Clear
1:53 PM 75.2 °F 57.2 °F 53% 30.04 in 10.0 mi Calm Calm - N/A   Clear
2:13 PM 75.2 °F 57.2 °F 53% 30.04 in 10.0 mi Calm Calm - N/A   Clear
2:34 PM 75.2 °F 57.2 °F 53% 30.04 in 10.0 mi WNW 3.5 mph - N/A   Clear
2:53 PM 78.8 °F 57.2 °F 47% 30.03 in 10.0 mi Calm Calm - N/A   Clear
3:13 PM 78.8 °F 57.2 °F 47% 30.02 in 10.0 mi Calm Calm - N/A   Clear
3:34 PM 78.8 °F 55.4 °F 44% 30.02 in 10.0 mi SW 4.6 mph - N/A   Clear
3:53 PM 78.8 °F 55.4 °F 44% 30.02 in 10.0 mi SSW 3.5 mph - N/A   Clear
4:13 PM 78.8 °F 55.4 °F 44% 30.02 in 10.0 mi ESE 4.6 mph - N/A   Clear
4:34 PM 78.8 °F 55.4 °F 44% 30.02 in 10.0 mi Calm Calm - N/A   Clear
4:53 PM 78.8 °F 55.4 °F 44% 30.01 in 10.0 mi SSE 4.6 mph - N/A   Clear
5:13 PM 78.8 °F 55.4 °F 44% 30.01 in 10.0 mi South 3.5 mph - N/A   Clear
5:34 PM 78.8 °F 55.4 °F 44% 30.00 in 10.0 mi NNE 3.5 mph - N/A   Clear
5:53 PM 78.8 °F 55.4 °F 44% 30.00 in 10.0 mi Calm Calm - N/A   Clear
6:13 PM 78.8 °F 55.4 °F 44% 29.99 in 10.0 mi Calm Calm - N/A   Clear
6:34 PM 78.8 °F 55.4 °F 44% 29.99 in 10.0 mi Calm Calm - N/A   Clear
6:53 PM 78.8 °F 55.4 °F 44% 29.99 in 10.0 mi Calm Calm - N/A   Clear
7:13 PM 78.8 °F 57.2 °F 47% 29.98 in 10.0 mi East 3.5 mph - N/A   Clear
7:34 PM 78.8 °F 57.2 °F 47% 29.98 in 10.0 mi ESE 5.8 mph - N/A   Clear
8:13 PM 75.2 °F 59.0 °F 57% 29.98 in 10.0 mi East 6.9 mph - N/A   Clear
8:34 PM 75.2 °F 60.8 °F 61% 29.99 in 10.0 mi East 5.8 mph - N/A   Clear
9:13 PM 71.6 °F 60.8 °F 69% 29.99 in 10.0 mi East 5.8 mph - N/A   Clear
9:53 PM 69.8 °F 60.8 °F 73% 29.98 in 10.0 mi East 5.8 mph - N/A   Clear
10:13 PM 69.8 °F 60.8 °F 73% 29.98 in 10.0 mi East 8.1 mph - N/A   Clear
10:34 PM 69.8 °F 62.6 °F 78% 29.99 in 10.0 mi East 9.2 mph - N/A   Clear
10:53 PM 69.8 °F 60.8 °F 73% 29.99 in 10.0 mi ESE 12.7 mph - N/A   Clear
11:13 PM 69.8 °F 60.8 °F 73% 30.00 in 10.0 mi ESE 10.4 mph - N/A   Clear
11:34 PM 69.8 °F 60.8 °F 73% 30.00 in 10.0 mi ESE 11.5 mph - N/A   Clear